Find Starlink 32012

NORAD ID: 60027 Int'l Des: 2024-111 Owner: SPXS Country: US Constellation: starlink operational
LEOCIRCULAR

当前视图

正在加载3D地球...

About Starlink 32012

Starlink 32012 (NORAD 60027) is a starlink constellation satellite (v2 mini) launched Jun 8, 2024 by SPXS of US. It operates in LEO, CIRCULAR orbit with a mass of 730.00 kg.

关于 Starlink 32012

正在加载描述...

即将过境

Passes for default location (London). Set your location on the main map for personalized predictions.

高度历史

Loading altitude history...

两行轨道根数

1 60027U 24111M 26170.82928341 .00003563 00000-0 13229-3 0 9994
2 60027 53.1625 321.0429 0001186 82.4132 277.7004 15.30222074114678
Epoch: Jun 19, 2026 • Age: 43 hours

当前状态

高度 476.9 km
速度 7.63 km/s
星下点 33.38°N, 28.78°W
发射日期 Jun 8, 2024
运行时间 2 years
类型 internet

技术详情

分类 Payload
质量 730.00 kg
干质量 700.00 kg
总质量 730.00 kg
长度 0.30 m
直径 4.10 m
跨度 29.00 m
形状 Box + pan
制造商 SPXS
平台类型 Starlink V2M
阶段状态 In Orbit
所有者/国家 SPXS/US

Most Searched